Watford City, ND

2:42 PM CST on December 06, 2019 (GMT -0600)
Watford City

Weather History for KS25 - October, 2019

Change the Weather History Date:

Thursday, October 17, 2019

  Actual Average (WUND) Record (WUND)
Temperature  
Mean Temperature 50 °F -  
Max Temperature 71 °F - - (-1)
Min Temperature 30 °F - - (-1)
Degree Days  
Heating Degree Days 14    
Moisture  
Dew Point 37 °F    
Average Humidity 74    
Maximum Humidity 100    
Minimum Humidity 29    
Precipitation  
Precipitation 0.00 in - - ()
Sea Level Pressure  
Sea Level Pressure 29.58 in    
Wind  
Wind Speed 4 mph (SE)    
Max Wind Speed 20 mph    
Max Gust Speed 26 mph    
Visibility 10 miles    
Events      
Averages and records for this station are not official NWS values.
T = Trace of Precipitation, MM = Missing Value Source: NWS Daily Summary

Daily Weather History Graph

Daily Weather History Graph

Search for Another Location

Airport or City:

Astronomy

Oct. 17, 2019 Rise Set
Actual Time 8:14 AM CDT 7:01 PM CDT
Civil Twilight 7:43 AM CDT 7:32 PM CDT
Nautical Twilight 7:07 AM CDT 8:08 PM CDT
Astronomical Twilight 6:31 AM CDT 8:44 PM CDT
Moon 9:20 PM CDT (10/17) 12:02 PM CDT (10/17)
Length of Visible Light 11h 49m
Length of Day
10h 46m
Waning Gibbous, 86% of the Moon is Illuminated
Oct 17
Waning Gibbous
Oct 21
Last Quarter
Oct 27
New
Nov 4
First Quarter
Nov 12
Full

Hourly Weather History & Observations

Time (CDT) Temp. Windchill Dew Point Humidity Pressure Visibility Wind Dir Wind Speed Gust Speed Precip Events Conditions
12:15 AM 33.8 °F - 32.0 °F 93% 29.78 in 10.0 mi Calm Calm - N/A   Clear
12:35 AM 32.0 °F 28.7 °F 32.0 °F 100% 29.79 in 10.0 mi WSW 3.5 mph - N/A   Clear
12:55 AM 33.8 °F - 32.0 °F 93% 29.79 in 10.0 mi Calm Calm - N/A   Clear
1:15 AM 32.0 °F - 32.0 °F 100% 29.78 in 10.0 mi Calm Calm - N/A   Clear
1:35 AM 32.0 °F - 32.0 °F 100% 29.77 in 10.0 mi Calm Calm - N/A   Clear
1:55 AM 32.0 °F - 32.0 °F 100% 29.77 in 10.0 mi Calm Calm - N/A   Clear
2:15 AM 33.8 °F - 32.0 °F 93% 29.77 in 10.0 mi Calm Calm - N/A   Clear
2:35 AM 32.0 °F - 30.2 °F 93% 29.76 in 10.0 mi Calm Calm - N/A   Clear
2:55 AM 32.0 °F - 32.0 °F 100% 29.76 in 10.0 mi Calm Calm - N/A   Clear
3:15 AM 30.2 °F - 30.2 °F 100% 29.76 in 10.0 mi Calm Calm - N/A   Clear
3:35 AM 30.2 °F - 30.2 °F 100% 29.76 in 10.0 mi Calm Calm - N/A   Clear
3:55 AM 32.0 °F - 32.0 °F 100% 29.75 in 10.0 mi Calm Calm - N/A   Clear
4:15 AM 30.2 °F - 30.2 °F 100% 29.75 in 10.0 mi Calm Calm - N/A   Clear
4:35 AM 30.2 °F - 30.2 °F 100% 29.75 in 10.0 mi Calm Calm - N/A   Clear
4:55 AM - - - N/A% 29.74 in 10.0 mi Calm Calm - N/A   Clear
5:15 AM 30.2 °F - 30.2 °F 100% 29.73 in 10.0 mi Calm Calm - N/A   Clear
5:35 AM 30.2 °F - 30.2 °F 100% 29.72 in 10.0 mi Calm Calm - N/A   Clear
5:55 AM 30.2 °F 26.7 °F 30.2 °F 100% 29.72 in 10.0 mi Variable 3.5 mph - N/A   Clear
6:15 AM 30.2 °F - 30.2 °F 100% 29.71 in 10.0 mi Calm Calm - N/A   Clear
6:35 AM 30.2 °F - 30.2 °F 100% 29.71 in 10.0 mi Calm Calm - N/A   Clear
6:55 AM 30.2 °F - 30.2 °F 100% 29.70 in 9.0 mi Calm Calm - N/A   Clear
7:15 AM 30.2 °F - 30.2 °F 100% 29.70 in 10.0 mi Calm Calm - N/A   Clear
7:35 AM 32.0 °F - 32.0 °F 100% 29.68 in 10.0 mi Calm Calm - N/A   Clear
7:55 AM 33.8 °F 28.6 °F 33.8 °F 100% 29.67 in 10.0 mi SE 5.8 mph - N/A   Clear
8:15 AM 30.2 °F - 30.2 °F 100% 29.67 in 8.0 mi Calm Calm - N/A   Clear
8:35 AM 30.2 °F - 30.2 °F 100% 29.66 in 8.0 mi Calm Calm - N/A   Clear
8:55 AM 35.6 °F 28.0 °F 35.6 °F 100% 29.65 in 10.0 mi ESE 10.4 mph - N/A   Clear
9:15 AM 35.6 °F - 32.0 °F 87% 29.65 in 10.0 mi Calm Calm - N/A   Clear
9:35 AM 35.6 °F - 35.6 °F 100% 29.65 in 10.0 mi Calm Calm - N/A   Clear
9:55 AM 41.0 °F 34.7 °F 37.4 °F 87% 29.65 in 10.0 mi ESE 10.4 mph - N/A   Clear
10:35 AM 44.6 °F 40.7 °F 37.4 °F 76% 29.63 in 10.0 mi ESE 6.9 mph - N/A   Clear
10:55 AM 46.4 °F 42.4 °F 39.2 °F 76% 29.63 in 10.0 mi ESE 8.1 mph - N/A   Clear
11:15 AM 50.0 °F - 39.2 °F 66% 29.62 in 10.0 mi East 6.9 mph - N/A   Clear
11:35 AM 55.4 °F - 41.0 °F 58% 29.62 in 10.0 mi SSE 5.8 mph - N/A   Clear
11:55 AM 59.0 °F - 39.2 °F 48% 29.61 in 10.0 mi ESE 5.8 mph - N/A   Clear
12:15 PM 59.0 °F - 41.0 °F 51% 29.60 in 10.0 mi SSE 5.8 mph - N/A   Clear
12:35 PM 64.4 °F - 37.4 °F 37% 29.59 in 10.0 mi South 12.7 mph 19.6 mph N/A   Clear
12:55 PM 66.2 °F - 37.4 °F 35% 29.58 in 10.0 mi South 16.1 mph 24.2 mph N/A   Clear
1:35 PM 69.8 °F - 37.4 °F 31% 29.55 in 10.0 mi SSE 19.6 mph 26.5 mph N/A   Clear
1:55 PM 71.6 °F - 37.4 °F 29% 29.53 in 10.0 mi SSE 19.6 mph - N/A   Clear
2:15 PM 69.8 °F - 37.4 °F 31% 29.51 in 10.0 mi SSE 16.1 mph 25.3 mph N/A   Clear
2:35 PM 69.8 °F - 37.4 °F 31% 29.50 in 10.0 mi SSE 17.3 mph 26.5 mph N/A   Clear
2:55 PM 69.8 °F - 37.4 °F 31% 29.49 in 10.0 mi SSE 15.0 mph 24.2 mph N/A   Clear
3:15 PM 69.8 °F - 37.4 °F 31% 29.47 in 10.0 mi SSE 16.1 mph 23.0 mph N/A   Clear
3:35 PM 69.8 °F - 39.2 °F 33% 29.47 in 10.0 mi SE 12.7 mph - N/A   Clear
3:55 PM 69.8 °F - 39.2 °F 33% 29.47 in 10.0 mi SSE 15.0 mph - N/A   Clear
4:15 PM 68.0 °F - 41.0 °F 37% 29.46 in 10.0 mi ESE 10.4 mph 17.3 mph N/A   Clear
4:35 PM 64.4 °F - 42.8 °F 45% 29.45 in 10.0 mi ESE 11.5 mph - N/A   Clear
4:55 PM 64.4 °F - 41.0 °F 42% 29.44 in 10.0 mi East 11.5 mph - N/A   Clear
5:15 PM 62.6 °F - 42.8 °F 48% 29.45 in 10.0 mi ESE 8.1 mph - N/A   Clear
5:35 PM 62.6 °F - 42.8 °F 48% 29.44 in 10.0 mi ESE 6.9 mph - N/A   Clear
5:55 PM 62.6 °F - 42.8 °F 48% 29.44 in 10.0 mi SE 10.4 mph - N/A   Clear
6:15 PM 60.8 °F - 41.0 °F 48% 29.44 in 10.0 mi SE 11.5 mph - N/A   Clear
6:35 PM 60.8 °F - 41.0 °F 48% 29.44 in 10.0 mi SE 11.5 mph 17.3 mph N/A   Clear
6:55 PM 59.0 °F - 41.0 °F 51% 29.43 in 10.0 mi ESE 8.1 mph - N/A   Clear
7:15 PM 55.4 °F - 41.0 °F 58% 29.43 in 10.0 mi SE 13.8 mph - N/A   Clear
7:35 PM 55.4 °F - 42.8 °F 63% 29.43 in 10.0 mi ESE 9.2 mph 15.0 mph N/A   Clear
7:55 PM 53.6 °F - 42.8 °F 67% 29.42 in 10.0 mi ESE 12.7 mph - N/A   Clear
8:15 PM 51.8 °F - 42.8 °F 71% 29.41 in 10.0 mi SE 11.5 mph - N/A   Clear
8:35 PM 51.8 °F - 42.8 °F 71% 29.40 in 10.0 mi SE 11.5 mph - N/A   Clear
8:55 PM 50.0 °F - 42.8 °F 76% 29.40 in 10.0 mi SE 11.5 mph - N/A   Clear
9:15 PM 51.8 °F - 42.8 °F 71% 29.40 in 10.0 mi SE 9.2 mph 16.1 mph N/A   Clear
9:35 PM 51.8 °F - 42.8 °F 71% 29.40 in 10.0 mi Calm Calm - N/A   Clear
9:55 PM 50.0 °F - 41.0 °F 71% 29.39 in 10.0 mi SE 6.9 mph - N/A   Clear
10:15 PM 48.2 °F - 41.0 °F 76% 29.39 in 10.0 mi SSE 4.6 mph - N/A   Clear
10:35 PM 46.4 °F - 42.8 °F 87% 29.40 in 10.0 mi Calm Calm - N/A   Clear
10:55 PM 44.6 °F 42.2 °F 41.0 °F 87% 29.39 in 10.0 mi SSE 4.6 mph - N/A   Clear
11:15 PM 44.6 °F - 41.0 °F 87% 29.39 in 10.0 mi Calm Calm - N/A   Clear
11:35 PM 44.6 °F 41.4 °F 41.0 °F 87% 29.38 in 10.0 mi ESE 5.8 mph - N/A   Clear
11:55 PM 42.8 °F - 41.0 °F 93% 29.38 in 10.0 mi Calm Calm - N/A   Clear